Regional Weather Roundup
Issued by NWS

Home | Current Version | Previous Version | Text Only | Print | Product List | Glossary Off
Versions: 1 2 3 4 5 6 7 8 9 10 11 12 13 14 15 16 17 18 19 20 21 22 23 24 25 26 27 28 29 30 31 32 33 34 35 36 37 38 39 40 41 42 43 44 45 46 47 48 49 50

000
ASUS43 KBIS 172210
RWRND

NORTH DAKOTA REGIONAL WEATHER ROUNDUP
NATIONAL WEATHER SERVICE BISMARCK ND
500 PM CDT THU AUG 17 2017

NOTE: "FAIR" INDICATES FEW OR NO CLOUDS BELOW 12,000 FEET WITH NO
SIGNIFICANT WEATHER AND/OR OBSTRUCTIONS TO VISIBILITY.


NDZ001>003-009>011-017-172300-
NORTHWEST NORTH DAKOTA

CITY           SKY/WX    TMP DP  RH WIND       PRES   REMARKS
WILLISTON      SUNNY     86  53  32 NW9       29.83F
MINOT          SUNNY     84  51  31 E8        29.81F
MINOT AFB      SUNNY     83  49  30 SE9       29.80F
$$

NDZ018>021-031>035-040>046-172300-
SOUTHWEST NORTH DAKOTA

CITY           SKY/WX    TMP DP  RH WIND       PRES   REMARKS
BISMARCK       SUNNY     83  54  36 S9        29.85F
DICKINSON      MOSUNNY   85  43  22 W16G29    29.86S
GARRISON         N/A     80  61  52 S14       29.81F
HETTINGER ARPT CLOUDY    79  46  31 NW10      29.91S
$$

NDZ004>008-012>016-024-026-027-054-172300-
NORTHEAST NORTH DAKOTA

CITY           SKY/WX    TMP DP  RH WIND       PRES   REMARKS
GRAND FORKS    MOSUNNY   80  62  54 N6        29.82F
GRND FRKS AFB  SUNNY     79  61  53 N3        29.84S
DEVILS LAKE    SUNNY     77  54  44 VRB3      29.87S
$$

NDZ022-023-025-028>030-036>039-047>053-172300-
SOUTHEAST NORTH DAKOTA

CITY           SKY/WX    TMP DP  RH WIND       PRES   REMARKS
FARGO          SUNNY     79  60  52 NW12      29.84S
JAMESTOWN      SUNNY     80  57  45 VRB5      29.86S
$$





USA.gov is the U.S. government's official web portal to all federal, state and local government web resources and services.